Location: Stilling
(56.0622°N, 9.9882°E)
Time: 23:42:44
(UTC+00:00)

USA 267 - Pass Details

Date: 13 July 2020
Orbit: 1102 x 1106 km, 123.0° (Epoch: 12 August)

Event Time Altitude Azimuth Distance (km) Brightness Sun altitude
Exits shadow 22:44:51 10° 141° (SE) 2,933 5.0 -11.8°
Maximum altitude 22:51:05 49° 215° (SW) 1,387 3.5 -11.9°
Drops below altitude 10° 22:57:25 10° 290° (WNW) 2,967 5.9 -12.1°
Sets 23:00:01 0° 296° (WNW) 3,927 6.6 -12.1°
